Weather History for Perry, FL

Change the Weather History Date:

Sunday, October 14, 2012

  Actual Average (KCTY) Record (KCTY)
Temperature  
Mean Temperature 76 °F 71 °F  
Max Temperature 88 °F 83 °F 91 °F (2012)
Min Temperature 64 °F 59 °F 46 °F (2000)
Degree Days  
Heating Degree Days 0 1  
Month to date heating degree days 4  
Since 1 July heating degree days 4  
Cooling Degree Days 11 7  
Month to date cooling degree days 118  
Year to date cooling degree days 2460  
Growing Degree Days 26 (Base 50)    
Moisture  
Dew Point 65 °F    
Average Humidity 76    
Maximum Humidity 93    
Minimum Humidity 42    
Precipitation  
Precipitation 0.02 in 0.10 in 0.56 in (2004)
Month to date precipitation 1.85  
Year to date precipitation 41.68  
Sea Level Pressure  
Sea Level Pressure 30.10 in    
Wind  
Wind Speed 4 mph (NNE)    
Max Wind Speed 7 mph    
Max Gust Speed -    
T = Trace of Precipitation, MM = Missing Value Source: NWS Daily Summary

Daily Weather History Graph

Daily Weather History Graph

Search for Another Location

Airport:

Trip Planner

Search our weather history database for the weather conditions in past years. The results will help you decide how hot, cold, wet, or windy it might be!

Date:

Astronomy

Oct. 14, 2012 Rise Set
Actual Time 7:35 AM EDT 7:03 PM EDT
Civil Twilight 7:11 AM EDT 7:28 PM EDT
Nautical Twilight 6:43 AM EDT 7:55 PM EDT
Astronomical Twilight 6:16 AM EDT 8:23 PM EDT
Moon 6:35 AM EDT (10/14) 6:24 PM EDT (10/14)
Length of Visible Light 12h 16m
Length of Day
11h 28m
Waning Crescent, 1% of the Moon is Illuminated
Oct 14
Waning Crescent
Oct 15
New
Oct 21
First Quarter
Oct 29
Full
Nov 6
Last Quarter

Hourly Weather History & Observations

Time (EDT) Temp. Heat Index Dew Point Humidity Pressure Visibility Wind Dir Wind Speed Gust Speed Precip Events Conditions
12:53 AM 69.1 °F - 64.9 °F 87% 30.18 in - NE 4.6 mph - N/A   Unknown
1:53 AM 68.0 °F - 64.9 °F 90% 30.17 in - Variable 3.5 mph - N/A   Unknown
2:53 AM 66.9 °F - 64.9 °F 93% 30.15 in - NNE 3.5 mph - 0.01 in   Unknown
3:53 AM 66.0 °F - 64.0 °F 93% 30.14 in - NNE 4.6 mph - N/A   Unknown
4:53 AM 66.0 °F - 64.0 °F 93% 30.14 in - NNE 4.6 mph - N/A   Unknown
5:53 AM 64.9 °F - 63.0 °F 93% 30.13 in - NE 3.5 mph - N/A   Unknown
6:53 AM 64.9 °F - 63.0 °F 93% 30.13 in - NE 3.5 mph - N/A   Unknown
7:53 AM 64.9 °F - 63.0 °F 93% 30.14 in - NNE 3.5 mph - N/A   Unknown
8:53 AM 66.9 °F - 64.0 °F 90% 30.15 in - NE 4.6 mph - N/A   Unknown
9:53 AM 73.0 °F - 66.0 °F 79% 30.15 in - NE 4.6 mph - N/A   Unknown
10:53 AM 77.0 °F - 66.0 °F 69% 30.14 in - ENE 5.8 mph - N/A   Unknown
11:53 AM 82.0 °F 84.1 °F 66.0 °F 58% 30.14 in - Variable 3.5 mph - N/A   Unknown
12:53 PM 82.0 °F 83.4 °F 64.0 °F 54% 30.13 in - Variable 5.8 mph - N/A   Unknown
1:53 PM 82.9 °F 84.0 °F 63.0 °F 51% 30.10 in - Variable 4.6 mph - N/A   Unknown
2:53 PM 86.0 °F 86.8 °F 63.0 °F 46% 30.08 in - North 3.5 mph - N/A   Unknown
3:53 PM 88.0 °F 88.4 °F 62.1 °F 42% 30.06 in - Variable 3.5 mph - N/A   Unknown
4:53 PM 82.0 °F 83.4 °F 64.0 °F 54% 30.05 in - Calm Calm - N/A   Unknown
5:53 PM 81.0 °F 82.5 °F 64.0 °F 56% 30.05 in - West 6.9 mph - N/A   Unknown
6:53 PM 75.9 °F - 64.9 °F 69% 30.04 in - WNW 3.5 mph - N/A   Unknown
7:53 PM 73.9 °F - 64.9 °F 73% 30.04 in - ENE 6.9 mph - N/A   Unknown
8:53 PM 73.9 °F - 68.0 °F 82% 30.04 in - NE 3.5 mph - N/A   Unknown
9:53 PM 73.0 °F - 68.0 °F 84% 30.03 in - NE 3.5 mph - 0.01 in   Unknown
10:53 PM 71.1 °F - 68.0 °F 90% 30.03 in - Calm Calm - N/A   Unknown
11:53 PM 70.0 °F - 66.9 °F 90% 30.03 in - Calm Calm - N/A   Unknown